[[{"header":{"parameterUnit":"m.s-1","parameterCategory":1,"la1":30.2991,"la2":30.254,"lo1":-89.0895,"lo2":-89.0444,"dy":0.0017,"dx":0.0017,"nx":28,"ny":28,"refTime":"2025-11-23T09:00:00:Z","depth":0,"parameterNumber":2,"parameterNumberName":"U-component_of_WINDS"},"data":[0,0,0,0,0,0,0,0,0,0,0,0,0,0,0,0,0,0,0,0,0,0,0,0,0,0,0,0,0,0,0,0,0,0,0,0,0,0,0,0,0,0,0,0,0,0,0,0,0,0,0,0,0,0,0,0,0,0,-2.2656,-2.2656,0,-2.2691,-2.2691,-2.2692,-2.2625,-2.2623,-2.2621,-2.2619,-2.2657,-2.266,-2.2663,0,0,0,0,0,0,0,0,0,0,0,0,0,-2.2531,-2.2534,-2.2656,-2.2656,-2.2656,-2.2691,-2.2691,-2.2692,-2.2626,-2.2623,-2.262,-2.2618,-2.2656,-2.2659,-2.2663,0,0,0,0,0,0,0,0,0,0,0,0,0,-2.2578,-2.2535,-2.2655,-2.2627,-2.2625,-2.2691,-2.2691,-2.2692,-2.2626,-2.2623,-2.2619,-2.2616,-2.2655,-2.2659,-2.2664,-2.2759,0,0,-2.2678,-2.268,0,0,0,0,0,0,0,0,-2.2575,-2.2583,-2.2631,-2.2629,-2.2627,-2.265,-2.2662,-2.2715,-2.2627,-2.2626,-2.2619,-2.2615,-2.2657,-2.2662,-2.2676,-2.2761,-2.2762,-2.2678,-2.2681,-2.2683,-2.2684,0,0,0,0,0,0,0,-2.2572,-2.2581,-2.267,-2.2632,-2.2629,-2.2613,-2.2616,-2.2671,-2.266,-2.2626,-2.2621,-2.2626,-2.2656,-2.2671,-2.2676,-2.2763,-2.2678,-2.2682,-2.2685,-2.2687,-2.2928,-2.2931,0,0,0,0,0,0,-2.2572,-2.2579,-2.2668,-2.2671,-2.2593,-2.2618,-2.2622,-2.2646,-2.2659,-2.2658,-2.2629,-2.2623,-2.2665,-2.2671,-2.2677,-2.279,-2.2683,-2.2687,-2.269,-2.2924,-2.2929,-2.2933,0,0,0,0,0,0,-2.257,-2.2581,-2.2667,-2.2623,-2.2633,-2.2624,-2.2652,-2.2649,-2.2664,-2.2661,-2.2659,-2.2647,-2.2663,-2.2671,-2.2739,-2.279,-2.2689,-2.2694,-2.292,-2.2926,-2.2931,-2.3016,0,0,0,0,0,0,-2.2567,-2.2581,-2.2616,-2.2625,-2.2636,-2.2728,-2.2655,-2.2652,-2.2672,-2.2665,-2.2678,-2.2677,-2.2661,-2.2732,-2.2744,-2.2795,-2.2697,-2.2915,-2.2923,-2.2929,-2.3009,-2.3024,-2.3037,0,0,0,0,0,-2.2563,-2.2639,-2.2619,-2.263,-2.268,-2.2731,-2.2738,-2.2717,-2.2677,-2.2713,-2.2711,-2.2676,-2.2783,-2.274,-2.2752,-2.2806,-2.2912,-2.2921,-2.2928,-2.3003,-2.3021,-2.3037,0,0,0,0,0,0,-2.2638,-2.264,-2.2617,-2.2699,-2.2715,-2.272,-2.2765,-2.2737,-2.2766,-2.2758,-2.2731,-2.2735,-2.2809,-2.2814,-2.2766,-2.2898,-2.2841,-2.2852,-2.2893,-2.291,-2.2924,-2.2922,-2.2701,0,0,0,0,0,-2.2664,-2.2705,-2.2705,-2.2777,-2.2786,-2.2774,-2.2796,-2.2778,-2.2795,-2.2802,-2.2805,-2.2823,-2.286,-2.2885,-2.2919,-2.3009,-2.3011,-2.3051,-2.3065,-2.3077,-2.3087,-2.3135,-2.3153,-2.2959,-2.2959,-2.2959,0,0,-2.2719,-2.2725,-2.2753,-2.2792,-2.2803,-2.2847,-2.2781,-2.283,-2.2862,-2.2809,-2.2874,-2.2877,-2.2895,-2.2974,-2.301,-2.2981,-2.3141,-2.3087,-2.3096,-2.31,-2.3145,-2.3164,-2.318,-2.2965,-2.2964,-2.2963,0,0,-2.2841,-2.2849,-2.2911,-2.2923,-2.294,-2.2931,-2.2946,-2.2955,-2.2954,-2.3019,-2.298,-2.3018,-2.3083,-2.3097,-2.3113,-2.324,-2.321,-2.3252,-2.3326,-2.3373,-2.3388,-2.3402,-2.3448,-2.3465,-2.3262,-2.3262,-2.3262,0,-2.2907,-2.2971,-2.2946,-2.2997,-2.3016,-2.297,-2.3032,-2.3045,-2.3073,-2.3087,-2.3054,-2.3134,-2.3143,-2.3225,-2.3256,-2.327,-2.3287,-2.3251,-2.3388,-2.3401,-2.3413,-2.3457,-2.3475,-2.3267,-2.3267,-2.3266,-2.3265,0,-2.3052,-2.3096,-2.3144,-2.3171,-2.3195,-2.3252,-2.3236,-2.3263,-2.3243,-2.3239,-2.3305,-2.3313,-2.3349,-2.3367,-2.3348,-2.3447,-2.3428,-2.3392,-2.3334,-2.3437,-2.3478,-2.3495,-2.3274,-2.3273,-2.3271,-2.327,0,0,-2.3224,-2.3236,-2.3254,-2.3266,-2.3281,-2.3315,-2.3369,-2.3403,-2.3428,-2.3448,-2.3494,-2.3549,-2.3515,-2.3533,-2.3516,-2.3557,-2.3658,-2.3516,-2.3516,-2.3543,-2.3768,-2.3796,-2.3816,-2.3637,-2.364,-2.3643,-2.3767,0,-2.3346,-2.3439,-2.3418,-2.3511,-2.3552,-2.3508,-2.3555,-2.357,-2.3567,-2.3602,-2.3598,-2.3638,-2.359,-2.3601,-2.3639,-2.3638,-2.3703,-2.3628,-2.3681,-2.3683,-2.3679,-2.3837,-2.3867,-2.3984,-2.3783,-2.3785,-2.3787,0,-2.3501,-2.3527,-2.3623,-2.3631,-2.3648,-2.3691,-2.372,-2.3754,-2.3769,-2.3764,-2.3784,-2.3758,-2.3813,-2.3753,-2.3828,-2.3777,-2.3797,-2.3799,-2.3803,-2.3809,-2.3742,-2.3848,-2.4021,-2.4039,-2.3812,-2.381,-2.3808,0,-2.3618,-2.3677,-2.3742,-2.3754,-2.3765,-2.3796,-2.3802,-2.3814,-2.3836,-2.3861,-2.3875,-2.3907,-2.3925,-2.395,-2.3934,-2.3892,-2.4012,-2.3951,-2.401,-2.4011,-2.4039,-2.4038,-2.4219,-2.405,-2.4049,-2.4049,-2.4049,0,-2.3758,-2.3819,-2.3795,-2.3836,-2.3903,-2.3878,-2.3945,-2.3946,-2.3957,-2.3997,-2.3961,-2.3999,-2.3975,-2.4012,-2.3999,-2.4064,-2.4072,-2.4069,-2.4066,-2.4074,-2.4074,-2.4087,-2.4079,-2.4054,-2.4053,-2.4052,-2.4051,0,-2.3901,-2.3887,-2.3956,-2.396,-2.3963,-2.4012,-2.4016,-2.4054,-2.4047,-2.4098,-2.4109,-2.4099,-2.414,-2.4126,-2.417,-2.4162,-2.4244,-2.4229,-2.4239,-2.4236,-2.4297,-2.4292,-2.4494,-2.4519,-2.4333,-2.4335,-2.4336,0,-2.3991,-2.4037,-2.4046,-2.407,-2.4079,-2.4118,-2.4139,-2.4116,-2.4141,-2.4161,-2.4197,-2.4235,-2.4264,-2.4332,-2.4329,-2.4363,-2.4349,-2.4418,-2.4354,-2.4361,-2.4352,-2.435,-2.4354,-2.4431,-2.4433,-2.4435,-2.4436,0,-2.4154,-2.4144,-2.4177,-2.4207,-2.4234,-2.4257,-2.4277,-2.4298,-2.4276,-2.4305,-2.4347,-2.437,-2.4414,-2.4453,-2.4483,-2.4489,-2.446,-2.4456,-2.4472,-2.4481,-2.4485,-2.4485,-2.4275,-2.4452,-2.445,-2.4449,-2.4448,-2.4448,-2.4274,-2.4313,-2.4325,-2.4363,-2.4375,-2.4394,-2.443,-2.4427,-2.4461,-2.4495,-2.4479,-2.4528,-2.4542,-2.4579,-2.459,-2.4627,-2.4601,-2.4624,-2.463,-2.4636,-2.4644,-2.4478,-2.4633,-2.4632,-2.4632,-2.4631,-2.4631,0,-2.4435,-2.4441,-2.4475,-2.4504,-2.4533,-2.4501,-2.4521,-2.4548,-2.4591,-2.4606,-2.4636,-2.4683,-2.472,-2.472,-2.4754,-2.4784,-2.4772,-2.4794,-2.4793,-2.4795,-2.4665,-2.4649,-2.4804,-2.4804,-2.4804,-2.4804,-2.4804,-2.4804,-2.4523,-2.4587,-2.4579,-2.4649,-2.4654,-2.4701,-2.4715,-2.4733,-2.4745,-2.48,-2.483,-2.4829,-2.4838,-2.4873,-2.4905,-2.4904,-2.4919,-2.4947,-2.4941,-2.4821,-2.4804,-2.4787,-2.4772,-2.495,-2.495,-2.5067,-2.5068,-2.5069]},{"header":{"parameterUnit":"m.s-1","parameterCategory":1,"la1":30.2991,"la2":30.254,"lo1":-89.0895,"lo2":-89.0444,"dy":0.0017,"dx":0.0017,"nx":28,"ny":28,"refTime":"2025-11-23T09:00:00:Z","depth":0,"parameterNumber":3,"parameterNumberName":"V-component_of_WINDS"},"data":[0,0,0,0,0,0,0,0,0,0,0,0,0,0,0,0,0,0,0,0,0,0,0,0,0,0,0,0,0,0,0,0,0,0,0,0,0,0,0,0,0,0,0,0,0,0,0,0,0,0,0,0,0,0,0,0,0,0,-2.4864,-2.4865,0,-2.4882,-2.4882,-2.4882,-2.4857,-2.4856,-2.4855,-2.4854,-2.487,-2.4871,-2.4872,0,0,0,0,0,0,0,0,0,0,0,0,0,-2.4807,-2.4808,-2.4864,-2.4865,-2.4865,-2.4882,-2.4882,-2.4882,-2.4857,-2.4856,-2.4855,-2.4854,-2.487,-2.4871,-2.4873,0,0,0,0,0,0,0,0,0,0,0,0,0,-2.4829,-2.4809,-2.4864,-2.4854,-2.4854,-2.4882,-2.4882,-2.4882,-2.4857,-2.4856,-2.4854,-2.4853,-2.4869,-2.4871,-2.4873,-2.4911,0,0,-2.4878,-2.4879,0,0,0,0,0,0,0,0,-2.4828,-2.4831,-2.4856,-2.4855,-2.4854,-2.4866,-2.4868,-2.4892,-2.4857,-2.4856,-2.4854,-2.4852,-2.487,-2.4871,-2.4877,-2.4912,-2.4912,-2.4879,-2.488,-2.4881,-2.4881,0,0,0,0,0,0,0,-2.4826,-2.483,-2.4871,-2.4856,-2.4855,-2.4848,-2.485,-2.4872,-2.487,-2.4856,-2.4854,-2.4856,-2.4869,-2.4876,-2.4878,-2.4913,-2.4879,-2.488,-2.4881,-2.4882,-2.4978,-2.4979,0,0,0,0,0,0,-2.4826,-2.4829,-2.4871,-2.4872,-2.4838,-2.485,-2.4852,-2.4863,-2.4869,-2.4869,-2.4858,-2.4855,-2.4873,-2.4875,-2.4878,-2.4922,-2.4881,-2.4882,-2.4883,-2.4977,-2.4978,-2.498,0,0,0,0,0,0,-2.4825,-2.483,-2.487,-2.485,-2.4855,-2.4853,-2.4866,-2.4864,-2.4871,-2.4871,-2.487,-2.4865,-2.4872,-2.4875,-2.4903,-2.4922,-2.4883,-2.4885,-2.4975,-2.4977,-2.4979,-2.5012,0,0,0,0,0,0,-2.4824,-2.483,-2.4845,-2.4851,-2.4856,-2.4895,-2.4867,-2.4866,-2.4875,-2.4872,-2.4878,-2.4877,-2.4871,-2.49,-2.4905,-2.4924,-2.4886,-2.4973,-2.4976,-2.4978,-2.5009,-2.5015,-2.502,0,0,0,0,0,-2.4822,-2.4853,-2.4846,-2.4851,-2.4875,-2.4896,-2.4899,-2.4892,-2.4876,-2.4891,-2.4891,-2.4877,-2.492,-2.4903,-2.4908,-2.4929,-2.4972,-2.4975,-2.4978,-2.5006,-2.5013,-2.5019,0,0,0,0,0,0,-2.485,-2.4854,-2.4846,-2.488,-2.4888,-2.4892,-2.491,-2.49,-2.4912,-2.4909,-2.4899,-2.4901,-2.493,-2.4932,-2.4913,-2.4965,-2.4943,-2.4947,-2.4963,-2.4969,-2.4975,-2.4973,-2.4888,0,0,0,0,0,-2.486,-2.4878,-2.4881,-2.4911,-2.4915,-2.4912,-2.4922,-2.4915,-2.4923,-2.4926,-2.4928,-2.4935,-2.495,-2.496,-2.4974,-2.5009,-2.5009,-2.5026,-2.5031,-2.5036,-2.5039,-2.5057,-2.5064,-2.499,-2.499,-2.499,0,0,-2.4881,-2.4886,-2.4898,-2.4917,-2.4922,-2.494,-2.4915,-2.4936,-2.4949,-2.4929,-2.4955,-2.4956,-2.4964,-2.4995,-2.5009,-2.4998,-2.5059,-2.504,-2.5043,-2.5044,-2.5061,-2.5068,-2.5074,-2.4992,-2.4992,-2.4992,0,0,-2.4929,-2.4935,-2.496,-2.4966,-2.4975,-2.4973,-2.4979,-2.4984,-2.4985,-2.5011,-2.4996,-2.5011,-2.5037,-2.5043,-2.5049,-2.5099,-2.5086,-2.5104,-2.5131,-2.5149,-2.5155,-2.516,-2.5176,-2.5183,-2.5107,-2.5107,-2.5107,0,-2.4954,-2.4982,-2.4974,-2.4996,-2.5004,-2.4988,-2.5012,-2.5018,-2.5031,-2.5037,-2.5024,-2.5056,-2.506,-2.5092,-2.5104,-2.511,-2.5116,-2.5102,-2.5155,-2.516,-2.5164,-2.518,-2.5186,-2.5109,-2.5109,-2.5109,-2.5109,0,-2.5011,-2.5031,-2.505,-2.5063,-2.5073,-2.5096,-2.5092,-2.5103,-2.5096,-2.5095,-2.5121,-2.5125,-2.5139,-2.5146,-2.514,-2.5177,-2.517,-2.5156,-2.5133,-2.5173,-2.5188,-2.5194,-2.5112,-2.5111,-2.5111,-2.511,0,0,-2.5077,-2.5086,-2.5093,-2.5098,-2.5106,-2.512,-2.5142,-2.5156,-2.5166,-2.5175,-2.5192,-2.5215,-2.5202,-2.5209,-2.5203,-2.5219,-2.5256,-2.5203,-2.5203,-2.5212,-2.5297,-2.5306,-2.5313,-2.5249,-2.525,-2.5251,-2.5296,0,-2.5124,-2.5162,-2.5156,-2.5193,-2.521,-2.5194,-2.5213,-2.522,-2.5219,-2.5233,-2.5232,-2.5248,-2.5231,-2.5235,-2.5249,-2.5249,-2.5273,-2.5245,-2.5264,-2.5264,-2.5261,-2.5321,-2.5331,-2.5373,-2.5301,-2.5302,-2.5303,0,-2.5183,-2.5195,-2.5233,-2.5238,-2.5245,-2.5262,-2.5274,-2.5288,-2.5295,-2.5293,-2.5302,-2.5292,-2.5313,-2.5291,-2.5319,-2.53,-2.5308,-2.5308,-2.531,-2.531,-2.5285,-2.5322,-2.5387,-2.5392,-2.5312,-2.5311,-2.5311,0,-2.5226,-2.5251,-2.5277,-2.5282,-2.5289,-2.5301,-2.5304,-2.531,-2.5319,-2.5329,-2.5334,-2.5347,-2.5354,-2.5364,-2.5358,-2.5342,-2.5386,-2.5364,-2.5385,-2.5385,-2.5394,-2.5393,-2.5459,-2.5401,-2.54,-2.54,-2.54,0,-2.5278,-2.5302,-2.5296,-2.5312,-2.5338,-2.5331,-2.5356,-2.5358,-2.5363,-2.5378,-2.5366,-2.538,-2.5372,-2.5386,-2.5381,-2.5405,-2.5408,-2.5407,-2.5405,-2.5407,-2.5407,-2.5411,-2.5407,-2.5402,-2.5402,-2.5401,-2.5401,0,-2.5329,-2.5327,-2.5354,-2.5358,-2.536,-2.5378,-2.5381,-2.5396,-2.5395,-2.5414,-2.5418,-2.5416,-2.5431,-2.5427,-2.5443,-2.544,-2.5469,-2.5464,-2.5467,-2.5465,-2.5486,-2.5484,-2.5556,-2.5565,-2.5501,-2.5502,-2.5502,0,-2.5362,-2.538,-2.5386,-2.5396,-2.54,-2.5416,-2.5424,-2.5418,-2.5427,-2.5436,-2.5449,-2.5464,-2.5475,-2.55,-2.5499,-2.5512,-2.5506,-2.5531,-2.5508,-2.5509,-2.5505,-2.5504,-2.5505,-2.5535,-2.5536,-2.5536,-2.5537,0,-2.542,-2.5418,-2.5431,-2.5444,-2.5455,-2.5465,-2.5473,-2.5482,-2.5476,-2.5487,-2.5502,-2.5511,-2.5528,-2.5542,-2.5553,-2.5556,-2.5545,-2.5544,-2.5549,-2.5551,-2.5551,-2.555,-2.5478,-2.5542,-2.5542,-2.5541,-2.5541,-2.5541,-2.5462,-2.5477,-2.5484,-2.5499,-2.5505,-2.5513,-2.5526,-2.5527,-2.554,-2.5553,-2.5549,-2.5566,-2.5572,-2.5586,-2.559,-2.5604,-2.5594,-2.5602,-2.5604,-2.5606,-2.5608,-2.555,-2.5606,-2.5606,-2.5606,-2.5605,-2.5605,0,-2.5519,-2.5522,-2.5536,-2.5549,-2.556,-2.555,-2.5559,-2.5569,-2.5585,-2.5591,-2.5603,-2.562,-2.5634,-2.5634,-2.5647,-2.5657,-2.5652,-2.5661,-2.5659,-2.566,-2.5616,-2.561,-2.5664,-2.5664,-2.5664,-2.5664,-2.5664,-2.5664,-2.5549,-2.5573,-2.5572,-2.5599,-2.5602,-2.562,-2.5625,-2.5632,-2.5638,-2.5658,-2.5669,-2.567,-2.5674,-2.5686,-2.5698,-2.5698,-2.5702,-2.5712,-2.571,-2.5669,-2.5663,-2.5657,-2.5651,-2.5713,-2.5713,-2.5752,-2.5752,-2.5753]}]]